When you browse on this site, cookies collect data to enhance your experience and personalize the content and advertising you see.
Visit our Privacy Policy to learn more. By continuing to use the site, you agree to this use of cookies and data.
  • en France
  • Liste des pays
  • À 7 jours
  • Température de l'eau
  • Carte météo
  • Widgets météo
  • user-avatar
    Se connecter

    Météo par heure à Serowe

    Ce jour, 22 Novembre, Vendredi

    Heure Température Précipitation Vent Pression Humidité
    00:00 +21°C° 1.6 mm 3 m/s 664 mmHg 80%
    01:00 +21°C° 1.6 mm 2 m/s 664 mmHg 82%
    02:00 +23°C° 0 mm 2 m/s 664 mmHg 84%
    03:00 +23°C° 0.3 mm 2 m/s 664 mmHg 86%
    04:00 +23°C° 0.3 mm 2 m/s 664 mmHg 88%
    05:00 +23°C° 0.3 mm 2 m/s 664 mmHg 90%
    06:00 +24°C° 0.8 mm 3 m/s 665 mmHg 82%
    07:00 +26°C° 0.8 mm 4 m/s 666 mmHg 74%
    08:00 +27°C° 0 mm 5 m/s 667 mmHg 70%
    09:00 +29°C° 0 mm 4 m/s 666 mmHg 62%
    10:00 +30°C° 0 mm 4 m/s 666 mmHg 54%
    11:00 +33°C° 0 mm 3 m/s 666 mmHg 47%
    12:00 +34°C° 0 mm 3 m/s 666 mmHg 41%
    13:00 +35°C° 0 mm 2 m/s 666 mmHg 36%
    14:00 +36°C° 0 mm 2 m/s 665 mmHg 37%
    15:00 +33°C° 2.3 mm 3 m/s 664 mmHg 47%
    16:00 +29°C° 2.3 mm 4 m/s 663 mmHg 57%
    17:00 +26°C° 2.3 mm 5 m/s 662 mmHg 68%
    18:00 +25°C° 0.2 mm 4 m/s 663 mmHg 67%
    19:00 +25°C° 0.2 mm 2 m/s 664 mmHg 67%
    20:00 +24°C° 0.2 mm 1 m/s 665 mmHg 67%
    21:00 +24°C° 0.1 mm 1 m/s 665 mmHg 70%
    22:00 +24°C° 0.1 mm 2 m/s 665 mmHg 73%
    23:00 +23°C° 0.1 mm 2 m/s 665 mmHg 75%

    Demain, 23 Novembre, Samedi

    Heure Température Précipitation Vent Pression Humidité
    00:00 +23°C° 0 mm 2 m/s 665 mmHg 75%
    01:00 +23°C° 0 mm 2 m/s 665 mmHg 74%
    02:00 +23°C° 0 mm 2 m/s 665 mmHg 74%
    03:00 +23°C° 0 mm 2 m/s 665 mmHg 77%
    04:00 +21°C° 0 mm 2 m/s 664 mmHg 80%
    05:00 +21°C° 0 mm 2 m/s 664 mmHg 83%
    06:00 +23°C° 0 mm 2 m/s 665 mmHg 76%
    07:00 +25°C° 0 mm 3 m/s 666 mmHg 68%
    08:00 +26°C° 0 mm 3 m/s 667 mmHg 60%
    09:00 +28°C° 0 mm 3 m/s 667 mmHg 53%
    10:00 +30°C° 0 mm 4 m/s 667 mmHg 46%
    11:00 +33°C° 0 mm 4 m/s 667 mmHg 40%
    12:00 +34°C° 0 mm 3 m/s 667 mmHg 35%
    13:00 +35°C° 0 mm 3 m/s 667 mmHg 31%
    14:00 +36°C° 0 mm 2 m/s 666 mmHg 27%
    15:00 +36°C° 0 mm 2 m/s 665 mmHg 27%
    16:00 +36°C° 0 mm 2 m/s 665 mmHg 28%
    17:00 +34°C° 0 mm 1 m/s 664 mmHg 28%
    18:00 +33°C° 0 mm 1 m/s 664 mmHg 30%
    19:00 +32°C° 0 mm 1 m/s 664 mmHg 32%
    20:00 +30°C° 0 mm 1 m/s 665 mmHg 35%
    21:00 +30°C° 0 mm 2 m/s 665 mmHg 38%
    22:00 +29°C° 0 mm 3 m/s 666 mmHg 41%
    23:00 +28°C° 0 mm 4 m/s 666 mmHg 44%

    Après-demain, 24 Novembre, Dimanche

    Heure Température Précipitation Vent Pression Humidité
    00:00 +27°C° 0.2 mm 4 m/s 666 mmHg 53%
    01:00 +25°C° 0.2 mm 4 m/s 665 mmHg 63%
    02:00 +22°C° 0.2 mm 4 m/s 665 mmHg 72%
    03:00 +23°C° 0.3 mm 4 m/s 665 mmHg 71%
    04:00 +23°C° 0.3 mm 4 m/s 665 mmHg 69%
    05:00 +23°C° 0.3 mm 4 m/s 666 mmHg 68%
    06:00 +25°C° 0 mm 4 m/s 666 mmHg 64%
    07:00 +26°C° 0 mm 4 m/s 667 mmHg 61%
    08:00 +27°C° 0 mm 4 m/s 667 mmHg 57%
    09:00 +29°C° 0 mm 4 m/s 667 mmHg 50%
    10:00 +32°C° 0 mm 4 m/s 667 mmHg 43%
    11:00 +34°C° 0 mm 4 m/s 667 mmHg 37%
    12:00 +35°C° 0 mm 3 m/s 667 mmHg 33%
    13:00 +36°C° 0 mm 3 m/s 667 mmHg 28%
    14:00 +37°C° 0 mm 2 m/s 666 mmHg 24%
    15:00 +37°C° 0 mm 3 m/s 666 mmHg 25%
    16:00 +36°C° 0 mm 3 m/s 665 mmHg 25%
    17:00 +35°C° 0 mm 3 m/s 665 mmHg 26%
    18:00 +34°C° 0 mm 3 m/s 665 mmHg 30%
    19:00 +31°C° 0 mm 2 m/s 665 mmHg 34%
    20:00 +30°C° 0 mm 1 m/s 665 mmHg 38%
    21:00 +29°C° 0.2 mm 1 m/s 665 mmHg 40%
    22:00 +29°C° 0.2 mm 2 m/s 666 mmHg 42%
    23:00 +28°C° 0.2 mm 2 m/s 666 mmHg 44%

    25 Novembre, Lundi

    Heure Température Précipitation Vent Pression Humidité
    00:00 +28°C° 0.1 mm 2 m/s 666 mmHg 47%
    01:00 +27°C° 0.1 mm 2 m/s 666 mmHg 50%
    02:00 +27°C° 0.1 mm 2 m/s 665 mmHg 52%
    03:00 +26°C° 0 mm 2 m/s 665 mmHg 54%
    04:00 +25°C° 0 mm 2 m/s 665 mmHg 56%
    05:00 +24°C° 0 mm 2 m/s 665 mmHg 58%
    06:00 +26°C° 0 mm 2 m/s 666 mmHg 51%
    07:00 +28°C° 0 mm 2 m/s 667 mmHg 44%
    08:00 +29°C° 0 mm 2 m/s 667 mmHg 37%
    09:00 +31°C° 0 mm 2 m/s 668 mmHg 33%
    10:00 +34°C° 0 mm 2 m/s 668 mmHg 29%
    11:00 +36°C° 0 mm 2 m/s 668 mmHg 25%
    12:00 +36°C° 0 mm 2 m/s 667 mmHg 23%
    13:00 +37°C° 0 mm 3 m/s 667 mmHg 21%
    14:00 +37°C° 0 mm 3 m/s 666 mmHg 18%
    15:00 +37°C° 0 mm 3 m/s 666 mmHg 19%
    16:00 +36°C° 0 mm 2 m/s 665 mmHg 20%
    17:00 +36°C° 0 mm 2 m/s 665 mmHg 20%
    18:00 +34°C° 0 mm 2 m/s 665 mmHg 23%
    19:00 +32°C° 0 mm 1 m/s 665 mmHg 26%
    20:00 +31°C° 0 mm 1 m/s 666 mmHg 28%
    21:00 +30°C° 0 mm 2 m/s 666 mmHg 30%
    22:00 +30°C° 0 mm 2 m/s 666 mmHg 32%
    23:00 +29°C° 0 mm 3 m/s 666 mmHg 34%

    26 Novembre, Mardi

    Heure Température Précipitation Vent Pression Humidité
    00:00 +28°C° 0 mm 3 m/s 666 mmHg 39%
    01:00 +27°C° 0 mm 3 m/s 665 mmHg 44%
    02:00 +26°C° 0 mm 3 m/s 665 mmHg 49%
    03:00 +26°C° 0 mm 2 m/s 665 mmHg 51%
    04:00 +25°C° 0 mm 2 m/s 665 mmHg 54%
    05:00 +24°C° 0 mm 2 m/s 665 mmHg 57%
    06:00 +26°C° 0 mm 2 m/s 666 mmHg 50%
    07:00 +28°C° 0 mm 3 m/s 666 mmHg 43%
    08:00 +30°C° 0 mm 3 m/s 667 mmHg 36%
    09:00 +33°C° 0 mm 3 m/s 668 mmHg 31%
    10:00 +35°C° 0 mm 3 m/s 668 mmHg 26%
    11:00 +37°C° 0 mm 3 m/s 668 mmHg 21%
    12:00 +37°C° 0 mm 3 m/s 667 mmHg 19%
    13:00 +37°C° 0 mm 4 m/s 667 mmHg 17%
    14:00 +38°C° 0 mm 4 m/s 666 mmHg 15%
    15:00 +37°C° 0 mm 4 m/s 666 mmHg 16%
    16:00 +37°C° 0 mm 4 m/s 665 mmHg 17%
    17:00 +36°C° 0 mm 4 m/s 665 mmHg 18%
    18:00 +35°C° 0 mm 4 m/s 665 mmHg 22%
    19:00 +33°C° 0 mm 4 m/s 665 mmHg 26%
    20:00 +30°C° 0 mm 4 m/s 665 mmHg 29%
    21:00 +30°C° 0 mm 4 m/s 665 mmHg 33%
    22:00 +29°C° 0 mm 5 m/s 666 mmHg 36%
    23:00 +28°C° 0 mm 6 m/s 666 mmHg 40%

    27 Novembre, Mercredi

    Heure Température Précipitation Vent Pression Humidité
    00:00 +28°C° 0 mm 5 m/s 666 mmHg 46%
    01:00 +27°C° 0 mm 5 m/s 666 mmHg 52%
    02:00 +26°C° 0 mm 5 m/s 665 mmHg 58%
    03:00 +26°C° 0 mm 5 m/s 666 mmHg 61%
    04:00 +25°C° 0 mm 5 m/s 666 mmHg 63%
    05:00 +24°C° 0 mm 6 m/s 666 mmHg 66%
    06:00 +24°C° 0 mm 6 m/s 667 mmHg 65%
    07:00 +26°C° 0 mm 6 m/s 667 mmHg 64%
    08:00 +26°C° 0 mm 6 m/s 668 mmHg 62%
    09:00 +28°C° 0 mm 6 m/s 668 mmHg 54%
    10:00 +30°C° 0 mm 6 m/s 668 mmHg 46%
    11:00 +33°C° 0 mm 6 m/s 669 mmHg 38%
    12:00 +34°C° 0 mm 6 m/s 668 mmHg 34%
    13:00 +35°C° 0 mm 6 m/s 667 mmHg 29%
    14:00 +36°C° 0 mm 6 m/s 667 mmHg 25%
    15:00 +36°C° 0 mm 6 m/s 666 mmHg 26%
    16:00 +35°C° 0 mm 6 m/s 666 mmHg 26%
    17:00 +34°C° 0 mm 6 m/s 666 mmHg 27%
    18:00 +33°C° 0 mm 6 m/s 666 mmHg 31%
    19:00 +30°C° 0 mm 5 m/s 666 mmHg 34%
    20:00 +29°C° 0 mm 4 m/s 666 mmHg 37%
    21:00 +28°C° 0 mm 4 m/s 667 mmHg 39%
    22:00 +27°C° 0 mm 4 m/s 667 mmHg 40%
    23:00 +26°C° 0 mm 5 m/s 667 mmHg 41%
    Voir plus